Flag for Russia Weather past 2 weeks in Barnaul, Russia

Now
32 °F

Light snow. More clouds than sun.


Feels Like: 22 °F
Forecast: 28 / 36 °F
Wind: 15 mph from Southwest

Location: Barnaul Airport

Current Time: Dec 25, 2014 at 4:08:33 PM

Latest Report: Dec 25, 2014 at 3:30 PM


Visibility: N/A

Pressure: 29.95 "Hg

Humidity: 93%

Dew point: 30 °F

Location of BarnaulLocation

Historic Weather in Barnaul — Graph

°F

Barnaul temperature yesterday

Maximum temperature yesterday: 21 °F (at 3:00 PM)
Minimum temperature yesterday: 7 °F (at 9:30 AM)
Average temperature yesterday: 16 °F

Past Weeks' High & Low Weather Summary

 TemperatureHumidityPressure
High30 °F (Dec 25, 11:00 AM)93% (Dec 25, 2:30 PM)30.92 "Hg (Dec 25, 2:30 PM)
Low-8 °F (Dec 14, 1:30 AM)56% (Dec 15, 12:00 PM)29.95 "Hg (Dec 25, 11:30 AM)
Average10 °F77%30.46 "Hg
* Reported Dec 10 2:00 PM — Dec 25 2:30 PM, Barnaul, Weather by CustomWeather, © 2014

Note: Actual official high and low records may vary slightly from our data, if they occured in-between our weather recording intervals... More about our weather records

Advertising

Barnaul weather history for previous 24 hours

 ConditionsComfort  
Time TempWeatherWind HumidityBarometerVisibility
2:30 PM
Dec 25
30 °FSnow flurries. Low clouds.13 mph93%29.95 "Hg1 mi
2:00 PM30 °FSnow flurries. More clouds than sun.13 mph86%29.95 "Hg6 mi
1:30 PM28 °FLight snow. Partly sunny.8 mph86%29.95 "HgN/A
1:00 PM28 °FLight snow. Low clouds.10 mph80%29.95 "Hg5 mi
12:30 PM28 °FPartly sunny.10 mph69%29.95 "HgN/A
12:00 PM30 °FPartly sunny.10 mph64%29.95 "HgN/A
11:30 AM30 °FPartly sunny.10 mph64%29.95 "HgN/A
11:00 AM30 °FLight snow. Partly sunny.10 mph69%29.98 "HgN/A
10:30 AM27 °FPartly sunny.8 mph69%29.98 "HgN/A
9:30 AM27 °FPartly sunny.8 mph69%29.98 "HgN/A
9:00 AM25 °FPartly sunny.8 mph69%29.98 "HgN/A
8:30 AM25 °FPassing clouds.8 mph69%29.98 "HgN/A
8:00 AM25 °FPassing clouds.10 mph69%29.98 "HgN/A
7:30 AM25 °FPassing clouds.8 mph63%29.98 "HgN/A
7:00 AM25 °FPassing clouds.8 mph63%29.98 "HgN/A
6:30 AM25 °FPassing clouds.8 mph63%29.98 "HgN/A
6:00 AM25 °FPassing clouds.10 mph63%29.98 "HgN/A
5:30 AM23 °FPassing clouds.10 mph68%29.98 "HgN/A
5:00 AM23 °FPassing clouds.10 mph68%29.98 "HgN/A
4:30 AM23 °FPassing clouds.10 mph68%30.01 "HgN/A
4:00 AM23 °FPassing clouds.10 mph68%30.01 "HgN/A
3:30 AM23 °FPassing clouds.10 mph68%30.01 "HgN/A
3:00 AM23 °FPassing clouds.8 mph68%30.01 "HgN/A
2:30 AM23 °FPassing clouds.8 mph68%30.04 "HgN/A
2:00 AM23 °FPassing clouds.10 mph63%30.04 "HgN/A
1:30 AM21 °FPassing clouds.8 mph74%30.04 "HgN/A
1:00 AM23 °FPassing clouds.6 mph63%30.04 "HgN/A
12:30 AM23 °FPassing clouds.8 mph68%30.04 "HgN/A
12:00 AM21 °FPassing clouds.8 mph74%30.07 "HgN/A
11:30 PM
Dec 24
21 °FClear.8 mph68%30.07 "Hg10 mi
11:00 PM21 °FClear.8 mph68%30.07 "Hg10 mi
10:30 PM19 °FClear.10 mph73%30.07 "Hg10 mi
10:00 PM19 °FClear.8 mph73%30.07 "Hg10 mi
9:30 PM19 °FClear.8 mph73%30.07 "Hg10 mi
9:00 PM19 °FClear.8 mph73%30.07 "Hg10 mi
8:30 PM19 °FClear.8 mph73%30.07 "Hg10 mi
8:00 PM19 °FClear.10 mph73%30.09 "Hg10 mi
7:30 PM19 °FClear.10 mph73%30.09 "Hg10 mi
7:00 PM21 °FClear.10 mph68%30.09 "Hg10 mi
6:30 PM21 °FClear.8 mph68%30.09 "Hg10 mi
6:00 PM19 °FClear.8 mph73%30.09 "Hg10 mi
5:30 PM19 °FClear.8 mph73%30.09 "Hg10 mi
5:00 PM21 °FClear.8 mph68%30.12 "Hg10 mi
4:30 PM21 °FClear.10 mph74%30.12 "Hg10 mi
4:00 PM21 °FPartly sunny.13 mph68%30.12 "HgN/A
Weather by CustomWeather, © 2014

See weather overviewHow to use our weather pages